Location: Bucknum
(43.0208°N, 106.6262°W)
Time: 16:11:07
(UTC+00:00)

ISS - Visible Passes

Search period start: 22 January 2022 00:00
Search period end: 01 February 2022 00:00
Orbit: 413 x 422 km, 51.6° (Epoch: 22 January)

Date Brightness Start Highest point End Pass type
(mag) Time Alt. Az. Time Alt. Az. Time Alt. Az.
22 Jan -2.6 01:46:57 10° W 01:50:03 34° NNW 01:50:36 32° N visible
23 Jan -3.1 00:58:43 10° WSW 01:01:57 48° NNW 01:04:38 14° NE visible
23 Jan -0.8 02:36:46 10° WNW 02:37:34 14° NW 02:37:34 14° NW visible
24 Jan -2.0 01:48:24 10° WNW 01:51:06 22° NNW 01:51:34 21° N visible
25 Jan -2.2 01:00:01 10° WNW 01:02:54 27° NNW 01:05:31 12° NE visible
25 Jan -0.7 02:38:02 10° NW 02:38:27 12° NW 02:38:27 12° NW visible
26 Jan -1.8 01:49:46 10° NW 01:52:12 18° N 01:52:23 18° N visible
27 Jan -1.8 01:01:24 10° WNW 01:03:56 20° N 01:06:18 11° NE visible
27 Jan -0.8 02:38:52 10° NW 02:39:13 12° NW 02:39:13 12° NW visible
28 Jan -1.9 01:50:45 10° NW 01:53:09 19° N 01:53:09 19° N visible
29 Jan -1.8 01:02:34 10° NW 01:04:58 18° N 01:07:05 11° NE visible
29 Jan -0.9 02:39:23 10° NW 02:40:01 14° NW 02:40:01 14° NW visible
30 Jan -2.3 01:51:22 10° NW 01:53:59 25° N 01:53:59 25° N visible
31 Jan -2.1 01:03:17 10° NW 01:05:57 21° NNE 01:08:01 13° ENE visible
31 Jan -1.3 02:39:50 10° NW 02:40:57 19° NW 02:40:57 19° NW visible
